Location: Auckland
(36.8670°S, 174.7670°E)
Time: 02:47:40
(UTC+12:00)

H-2A R/B - Pass Details

Date: 24 January 2019
Orbit: 733 x 838 km, 98.3° (Epoch: 17 April)

Event Time Altitude Azimuth Distance (km) Brightness Sun altitude
Rises 22:36:22 0° 166° (SSE) 3,251 5.7 -20.1°
Reaches altitude 10° 22:38:43 10° 165° (SSE) 2,305 4.9 -20.5°
Maximum altitude 22:43:47 78° 78° (ENE) 769 1.8 -21.2°
Enters shadow 22:45:40 39° 358° (N) 1,112 2.5 -21.4°
